GW7231 Weather Reports


time (UTC)temp
C
wind
direction
speed
KPH
gust
KPH
rain 1hr
cm
rain 24hr
cm
rain mn
cm
humidity
%
barometer
mb
20260505111144 12 199 1.6 1.6 0.00 0.00 0.00 87 1014.8
20260505110640 12 203 0.0 0.0 0.00 0.00 0.00 87 1014.8
20260505110138 12 206 0.0 1.6 0.00 0.00 0.00 87 1014.8
20260505102114 11 201 1.6 1.6 0.00 0.00 0.00 87 1014.4
20260505101612 12 200 1.6 3.2 0.00 0.00 0.00 87 1014.6
20260505101108 11 189 0.0 0.0 0.00 0.00 0.00 87 1014.5
20260505100605 11 189 1.6 1.6 0.00 0.00 0.00 87 1014.3
20260505095558 11 188 1.6 1.6 0.00 0.00 0.00 87 1014.4
20260505095054 11 182 0.0 1.6 0.00 0.00 0.00 87 1014.3
20260505094551 11 182 0.0 0.0 0.00 0.00 0.00 87 1014.4
20260505094047 11 183 0.0 0.0 0.00 0.00 0.00 87 1014.3
20260505093543 11 184 1.6 1.6 0.00 0.00 0.00 87 1014.4
20260505093041 11 186 0.0 0.0 0.00 0.00 0.00 86 1014.1
20260505092538 12 186 0.0 0.0 0.00 0.00 0.00 86 1014.2
20260505092037 12 187 1.6 1.6 0.00 0.00 0.00 86 1014.1
20260505091533 12 188 0.0 0.0 0.00 0.00 0.00 86 1014.0
20260504223832 26 215 1.6 1.6 0.00 0.00 0.00 38 1011.4
20260504223327 26 215 1.6 1.6 0.00 0.00 0.00 38 1011.4
20260504222824 26 215 0.0 0.0 0.00 0.00 0.00 38 1011.4
20260504222321 26 217 0.0 0.0 0.00 0.00 0.00 38 1011.2
20260504221820 26 133 0.0 0.0 0.00 0.00 0.00 41 1011.6
20260504221316 26 207 3.2 3.2 0.00 0.00 0.00 37 1011.5
20260504220813 26 238 1.6 3.2 0.00 0.00 0.00 39 1011.8
20260504220309 26 241 1.6 1.6 0.00 0.00 0.00 41 1011.8
20260504215807 26 217 1.6 1.6 0.00 0.00 0.00 40 1011.8
20260504215304 26 218 0.0 0.0 0.00 0.00 0.00 39 1011.7
20260504214759 26 222 1.6 1.6 0.00 0.00 0.00 40 1011.9
20260504214256 26 214 0.0 0.0 0.00 0.00 0.00 40 1011.8
20260504213753 25 208 0.0 0.0 0.00 0.00 0.00 40 1012.0
20260504213249 25 208 1.6 3.2 0.00 0.00 0.00 39 1012.0
20260504212746 26 225 0.0 0.0 0.00 0.00 0.00 40 1012.1
20260504212242 25 209 0.0 0.0 0.00 0.00 0.00 42 1011.9
20260504211740 25 184 0.0 1.6 0.00 0.00 0.00 42 1011.9
20260504211236 25 181 0.0 0.0 0.00 0.00 0.00 41 1012.0
20260504210734 25 182 0.0 0.0 0.00 0.00 0.00 42 1011.9
20260504210231 25 222 3.2 3.2 0.00 0.00 0.00 37 1012.0
20260504205728 25 227 0.0 0.0 0.00 0.00 0.00 38 1012.1
20260504205225 25 229 0.0 0.0 0.00 0.00 0.00 38 1012.0
20260504204723 25 225 3.2 3.2 0.00 0.00 0.00 36 1012.1
20260504204222 25 245 4.8 4.8 0.00 0.00 0.00 34 1011.8
20260504203721 25 217 1.6 1.6 0.00 0.00 0.00 36 1012.2
20260504203218 25 187 1.6 3.2 0.00 0.00 0.00 38 1012.0
20260504202717 25 237 1.6 1.6 0.00 0.00 0.00 36 1011.9
20260504202215 25 241 1.6 1.6 0.00 0.00 0.00 39 1012.0
20260504201712 25 243 0.0 0.0 0.00 0.00 0.00 39 1012.2
20260504201209 25 218 0.0 0.0 0.00 0.00 0.00 36 1012.2
20260504200707 24 218 0.0 0.0 0.00 0.00 0.00 37 1012.2
20260504200203 24 233 1.6 1.6 0.00 0.00 0.00 38 1012.3
20260504195659 24 196 1.6 1.6 0.00 0.00 0.00 38 1012.1
20260504195155 24 192 0.0 0.0 0.00 0.00 0.00 37 1012.1
20260504194652 24 175 3.2 3.2 0.00 0.00 0.00 37 1012.0
20260504194148 24 172 0.0 0.0 0.00 0.00 0.00 37 1012.0
20260504193645 24 230 0.0 0.0 0.00 0.00 0.00 39 1012.1
20260504193143 23 222 0.0 0.0 0.00 0.00 0.00 39 1012.1
20260504192640 23 216 0.0 0.0 0.00 0.00 0.00 41 1012.1
20260504192138 23 210 0.0 0.0 0.00 0.00 0.00 40 1012.2
20260504191636 23 210 0.0 0.0 0.00 0.00 0.00 41 1012.2
20260504191132 23 214 0.0 0.0 0.00 0.00 0.00 43 1012.2
20260504190628 22 217 3.2 3.2 0.00 0.00 0.00 41 1012.4
20260504190125 23 177 3.2 3.2 0.00 0.00 0.00 42 1012.2
20260504185622 23 204 3.2 3.2 0.00 0.00 0.00 41 1012.3
20260504185118 23 205 1.6 1.6 0.00 0.00 0.00 43 1012.4
20260504184614 22 213 1.6 1.6 0.00 0.00 0.00 42 1012.6
20260504184109 22 234 0.0 0.0 0.00 0.00 0.00 42 1012.5
20260504183607 22 234 0.0 0.0 0.00 0.00 0.00 42 1012.2
20260504183105 22 235 1.6 1.6 0.00 0.00 0.00 41 1012.6
20260504182601 22 234 0.0 0.0 0.00 0.00 0.00 41 1012.5
20260504182059 22 234 0.0 0.0 0.00 0.00 0.00 42 1012.3
20260504181556 21 234 0.0 0.0 0.00 0.00 0.00 42 1012.5
20260504181054 21 248 3.2 3.2 0.00 0.00 0.00 42 1012.4
20260504180553 21 10 0.0 0.0 0.00 0.00 0.00 43 1012.2
20260504180051 21 10 0.0 1.6 0.00 0.00 0.00 43 1012.5
20260504175548 20 9 1.6 1.6 0.00 0.00 0.00 44 1012.3
20260504175045 20 8 0.0 0.0 0.00 0.00 0.00 46 1012.5
20260504174543 20 13 0.0 0.0 0.00 0.00 0.00 44 1012.3
20260504174039 21 12 1.6 1.6 0.00 0.00 0.00 43 1012.3
20260504173536 20 35 3.2 3.2 0.00 0.00 0.00 44 1012.4
20260504173034 20 39 0.0 0.0 0.00 0.00 0.00 45 1012.5
20260504172530 20 44 0.0 0.0 0.00 0.00 0.00 44 1012.3
20260504172026 20 46 0.0 0.0 0.00 0.00 0.00 43 1012.4
20260504171523 20 53 1.6 1.6 0.00 0.00 0.00 45 1012.5
20260504171020 20 53 0.0 0.0 0.00 0.00 0.00 47 1012.3
20260504170516 20 53 1.6 1.6 0.00 0.00 0.00 43 1012.3
20260504160436 18 54 1.6 1.6 0.00 0.00 0.00 50 1011.9
20260504150900 15 54 0.0 0.0 0.00 0.00 0.00 69 1011.8
20260504150356 15 54 0.0 0.0 0.00 0.00 0.00 70 1011.7
20260504141327 12 54 0.0 0.0 0.00 0.00 0.00 77 1011.4
20260504140823 12 54 0.0 0.0 0.00 0.00 0.00 78 1011.5
20260504140319 12 54 0.0 0.0 0.00 0.00 0.00 78 1011.3
20260504130748 11 54 0.0 0.0 0.00 0.00 0.00 75 1011.1
20260504130244 11 54 0.0 0.0 0.00 0.00 0.00 75 1011.0
20260504120208 12 54 0.0 0.0 0.00 0.00 0.00 75 1010.9